| time (UTC) | temp C | wind direction | speed KPH | gust KPH | rain 1hr cm | rain 24hr cm | rain mn cm | humidity % | barometer mb |
| 20260904151753 | 31 | 247 | 0.0 | 4.8 | 0.00 | 0.00 | 0.00 | 65 | 1017.7 |
| 20260904151251 | 31 | 208 | 1.6 | 3.2 | 0.00 | 0.00 | 0.00 | 69 | 1017.6 |
| 20260904150748 | 31 | 211 | 0.0 | 3.2 | 0.00 | 0.00 | 0.00 | 69 | 1017.6 |
| 20260904150243 | 31 | 218 | 1.6 | 1.6 | 0.00 | 0.00 | 0.00 | 70 | 1017.7 |
| 20260904145741 | 31 | 217 | 0.0 | 1.6 | 0.00 | 0.00 | 0.00 | 73 | 1017.7 |
| 20260904145237 | 30 | 230 | 1.6 | 1.6 | 0.00 | 0.00 | 0.00 | 73 | 1017.5 |
| 20260904144732 | 30 | 206 | 1.6 | 1.6 | 0.00 | 0.00 | 0.00 | 73 | 1017.5 |
| 20260904144228 | 30 | 218 | 1.6 | 3.2 | 0.00 | 0.00 | 0.00 | 75 | 1017.5 |
| 20260904143723 | 30 | 226 | 1.6 | 1.6 | 0.00 | 0.00 | 0.00 | 79 | 1017.4 |
| 20260904143220 | 30 | 221 | 1.6 | 4.8 | 0.00 | 0.00 | 0.00 | 76 | 1017.5 |
| 20260904142716 | 30 | 213 | 3.2 | 3.2 | 0.00 | 0.00 | 0.00 | 78 | 1017.3 |
| 20260904142211 | 29 | 216 | 1.6 | 1.6 | 0.00 | 0.00 | 0.00 | 81 | 1017.5 |
| 20260904141711 | 29 | 221 | 0.0 | 1.6 | 0.00 | 0.00 | 0.00 | 82 | 1017.6 |
| 20260904141207 | 28 | 214 | 0.0 | 1.6 | 0.00 | 0.00 | 0.00 | 83 | 1017.4 |
| 20260904140702 | 28 | 214 | 0.0 | 0.0 | 0.00 | 0.00 | 0.00 | 89 | 1017.3 |
| 20260904140157 | 27 | 215 | 0.0 | 1.6 | 0.00 | 0.00 | 0.00 | 95 | 1017.2 |
| 20260904135656 | 26 | 220 | 0.0 | 0.0 | 0.00 | 0.00 | 0.00 | 99 | 1017.5 |
| 20260904135152 | 26 | 213 | 0.0 | 0.0 | 0.00 | 0.00 | 0.00 | 99 | 1017.3 |
| 20260904134648 | 26 | 209 | 0.0 | 0.0 | 0.00 | 0.00 | 0.00 | 99 | 1017.3 |
| 20260904134147 | 25 | 197 | 0.0 | 0.0 | 0.00 | 0.00 | 0.00 | 99 | 1017.3 |
| 20260904133642 | 25 | 218 | 0.0 | 0.0 | 0.00 | 0.00 | 0.00 | 99 | 1017.3 |
| 20260904133138 | 25 | 217 | 0.0 | 0.0 | 0.00 | 0.00 | 0.00 | 99 | 1017.3 |
| 20260904132637 | 25 | 219 | 0.0 | 0.0 | 0.00 | 0.00 | 0.00 | 99 | 1017.4 |
| 20260904132132 | 25 | 219 | 0.0 | 0.0 | 0.00 | 0.00 | 0.00 | 99 | 1017.3 |
| 20260904131632 | 25 | 219 | 0.0 | 0.0 | 0.00 | 0.00 | 0.00 | 99 | 1017.5 |
| 20260904131128 | 25 | 219 | 0.0 | 0.0 | 0.00 | 0.00 | 0.00 | 99 | 1017.4 |
| 20260904130627 | 25 | 219 | 0.0 | 0.0 | 0.00 | 0.00 | 0.00 | 99 | 1017.2 |
| 20260904130122 | 24 | 219 | 0.0 | 0.0 | 0.00 | 0.00 | 0.00 | 99 | 1017.3 |
| 20260904125618 | 24 | 219 | 0.0 | 0.0 | 0.00 | 0.00 | 0.00 | 99 | 1017.3 |
| 20260904125118 | 23 | 219 | 0.0 | 0.0 | 0.00 | 0.00 | 0.00 | 99 | 1017.3 |
| 20260904124608 | 23 | 219 | 0.0 | 0.0 | 0.00 | 0.00 | 0.00 | 99 | 1017.3 |
| 20260904124104 | 23 | 219 | 0.0 | 0.0 | 0.00 | 0.00 | 0.00 | 99 | 1017.2 |
| 20260904123603 | 23 | 219 | 0.0 | 0.0 | 0.00 | 0.00 | 0.00 | 99 | 1017.2 |
| 20260904123059 | 23 | 219 | 0.0 | 0.0 | 0.00 | 0.00 | 0.00 | 99 | 1017.1 |
| 20260904122554 | 22 | 219 | 0.0 | 0.0 | 0.00 | 0.00 | 0.00 | 99 | 1017.1 |
| 20260904122049 | 22 | 219 | 0.0 | 0.0 | 0.00 | 0.00 | 0.00 | 99 | 1017.0 |
| 20260904121544 | 22 | 219 | 0.0 | 0.0 | 0.00 | 0.00 | 0.00 | 99 | 1017.0 |
| 20260904121040 | 22 | 219 | 0.0 | 0.0 | 0.00 | 0.00 | 0.00 | 99 | 1016.8 |
| 20260904120536 | 22 | 219 | 0.0 | 0.0 | 0.00 | 0.00 | 0.00 | 99 | 1017.0 |
| 20260904120032 | 22 | 219 | 0.0 | 0.0 | 0.00 | 0.00 | 0.00 | 99 | 1016.8 |
| 20260904115526 | 22 | 219 | 0.0 | 0.0 | 0.00 | 0.00 | 0.00 | 99 | 1016.8 |
| 20260904115020 | 22 | 219 | 0.0 | 0.0 | 0.00 | 0.00 | 0.00 | 99 | 1016.9 |
| 20260904114515 | 22 | 219 | 0.0 | 0.0 | 0.00 | 0.00 | 0.00 | 99 | 1016.6 |
| 20260904114011 | 22 | 219 | 0.0 | 0.0 | 0.00 | 0.00 | 0.00 | 99 | 1016.5 |
| 20260904113510 | 22 | 219 | 0.0 | 0.0 | 0.00 | 0.00 | 0.00 | 99 | 1016.4 |
| 20260904113010 | 22 | 219 | 0.0 | 0.0 | 0.00 | 0.00 | 0.00 | 99 | 1016.3 |
| 20260904112505 | 22 | 219 | 0.0 | 0.0 | 0.00 | 0.00 | 0.00 | 99 | 1016.4 |
| 20260904112000 | 22 | 219 | 0.0 | 0.0 | 0.00 | 0.00 | 0.00 | 99 | 1016.3 |
| 20260904111456 | 22 | 219 | 0.0 | 0.0 | 0.00 | 0.00 | 0.00 | 99 | 1016.5 |
| 20260904110952 | 22 | 219 | 0.0 | 0.0 | 0.00 | 0.00 | 0.00 | 99 | 1016.1 |
| 20260904110451 | 22 | 219 | 0.0 | 0.0 | 0.00 | 0.00 | 0.00 | 99 | 1016.3 |
| 20260904105941 | 22 | 219 | 0.0 | 0.0 | 0.00 | 0.00 | 0.00 | 99 | 1016.2 |
| 20260904105435 | 22 | 219 | 0.0 | 0.0 | 0.00 | 0.00 | 0.00 | 99 | 1016.0 |
| 20260904104930 | 22 | 219 | 0.0 | 0.0 | 0.00 | 0.00 | 0.00 | 99 | 1016.1 |
| 20260904104430 | 22 | 219 | 0.0 | 0.0 | 0.00 | 0.00 | 0.00 | 99 | 1016.2 |
| 20260904103927 | 22 | 219 | 0.0 | 0.0 | 0.00 | 0.00 | 0.00 | 99 | 1016.2 |
| 20260904103422 | 22 | 219 | 0.0 | 0.0 | 0.00 | 0.00 | 0.00 | 99 | 1016.0 |
| 20260904102918 | 22 | 219 | 0.0 | 0.0 | 0.00 | 0.00 | 0.00 | 99 | 1016.1 |
| 20260904102414 | 22 | 219 | 0.0 | 0.0 | 0.00 | 0.00 | 0.00 | 99 | 1015.9 |
| 20260904101909 | 22 | 219 | 0.0 | 0.0 | 0.00 | 0.00 | 0.00 | 99 | 1015.8 |
| 20260904101406 | 22 | 219 | 0.0 | 0.0 | 0.00 | 0.00 | 0.00 | 99 | 1016.0 |
| 20260904100901 | 22 | 219 | 0.0 | 0.0 | 0.00 | 0.00 | 0.00 | 99 | 1016.0 |
| 20260904100357 | 22 | 219 | 0.0 | 0.0 | 0.00 | 0.00 | 0.00 | 99 | 1016.0 |
| 20260904095851 | 22 | 219 | 0.0 | 0.0 | 0.00 | 0.00 | 0.00 | 99 | 1016.0 |
| 20260904095346 | 22 | 219 | 0.0 | 0.0 | 0.00 | 0.00 | 0.00 | 99 | 1015.9 |
| 20260904094841 | 22 | 219 | 0.0 | 0.0 | 0.00 | 0.00 | 0.00 | 99 | 1015.7 |
| 20260904094336 | 22 | 219 | 0.0 | 0.0 | 0.00 | 0.00 | 0.00 | 99 | 1015.9 |
| 20260904093833 | 22 | 219 | 0.0 | 0.0 | 0.00 | 0.00 | 0.00 | 99 | 1015.7 |
| 20260904093332 | 22 | 219 | 0.0 | 0.0 | 0.00 | 0.00 | 0.00 | 99 | 1015.6 |
| 20260904092828 | 22 | 219 | 0.0 | 0.0 | 0.00 | 0.00 | 0.00 | 99 | 1015.6 |
| 20260904092325 | 22 | 219 | 0.0 | 0.0 | 0.00 | 0.00 | 0.00 | 99 | 1015.6 |
| 20260904091820 | 22 | 219 | 0.0 | 0.0 | 0.00 | 0.00 | 0.00 | 99 | 1015.5 |
| 20260904091315 | 22 | 219 | 0.0 | 0.0 | 0.00 | 0.00 | 0.00 | 99 | 1015.5 |
| 20260904090810 | 23 | 219 | 0.0 | 0.0 | 0.00 | 0.00 | 0.00 | 99 | 1015.5 |
| 20260904090306 | 23 | 219 | 0.0 | 0.0 | 0.00 | 0.00 | 0.00 | 99 | 1015.6 |
| 20260904085800 | 23 | 219 | 0.0 | 0.0 | 0.00 | 0.00 | 0.00 | 99 | 1015.5 |
| 20260904085256 | 23 | 219 | 0.0 | 0.0 | 0.00 | 0.00 | 0.00 | 99 | 1015.8 |
| 20260904084750 | 23 | 219 | 0.0 | 0.0 | 0.00 | 0.00 | 0.00 | 99 | 1015.7 |
| 20260904084246 | 23 | 219 | 0.0 | 0.0 | 0.00 | 0.00 | 0.00 | 99 | 1015.6 |
| 20260904083742 | 23 | 219 | 0.0 | 0.0 | 0.00 | 0.00 | 0.00 | 99 | 1015.5 |
| 20260904083239 | 23 | 219 | 0.0 | 0.0 | 0.00 | 0.00 | 0.00 | 99 | 1015.6 |
| 20260904082739 | 23 | 219 | 0.0 | 0.0 | 0.00 | 0.00 | 0.00 | 99 | 1015.7 |
| 20260904082234 | 23 | 219 | 0.0 | 0.0 | 0.00 | 0.00 | 0.00 | 99 | 1015.6 |
| 20260904081729 | 23 | 219 | 0.0 | 0.0 | 0.00 | 0.00 | 0.00 | 99 | 1015.6 |
| 20260904081224 | 23 | 219 | 0.0 | 0.0 | 0.00 | 0.00 | 0.00 | 99 | 1015.7 |
| 20260904080720 | 23 | 219 | 0.0 | 1.6 | 0.00 | 0.00 | 0.00 | 99 | 1015.8 |
| 20260904080210 | 23 | 219 | 0.0 | 0.0 | 0.00 | 0.00 | 0.00 | 99 | 1015.6 |
| 20260904075706 | 23 | 219 | 0.0 | 0.0 | 0.00 | 0.00 | 0.00 | 99 | 1015.7 |
| 20260904075201 | 23 | 219 | 0.0 | 0.0 | 0.00 | 0.00 | 0.00 | 99 | 1015.6 |
| 20260904074700 | 23 | 219 | 0.0 | 0.0 | 0.00 | 0.00 | 0.00 | 99 | 1015.5 |
| 20260904074155 | 23 | 219 | 0.0 | 0.0 | 0.00 | 0.00 | 0.00 | 99 | 1015.3 |
| 20260904073650 | 23 | 219 | 0.0 | 0.0 | 0.00 | 0.00 | 0.00 | 99 | 1015.6 |
| 20260904073146 | 23 | 219 | 0.0 | 0.0 | 0.00 | 0.00 | 0.00 | 99 | 1015.4 |
| 20260904072642 | 23 | 219 | 0.0 | 0.0 | 0.00 | 0.00 | 0.00 | 99 | 1015.4 |
| 20260904072136 | 23 | 219 | 0.0 | 0.0 | 0.00 | 0.00 | 0.00 | 99 | 1015.6 |
| 20260904071632 | 23 | 219 | 0.0 | 0.0 | 0.00 | 0.00 | 0.00 | 99 | 1015.4 |
| 20260904071126 | 23 | 219 | 0.0 | 0.0 | 0.00 | 0.00 | 0.00 | 99 | 1015.5 |
| 20260904070625 | 23 | 219 | 0.0 | 0.0 | 0.00 | 0.00 | 0.00 | 99 | 1015.4 |
| 20260904070121 | 23 | 219 | 0.0 | 0.0 | 0.00 | 0.00 | 0.00 | 99 | 1015.6 |
| 20260904065615 | 23 | 219 | 0.0 | 0.0 | 0.00 | 0.00 | 0.00 | 99 | 1015.5 |
| 20260904065113 | 23 | 219 | 0.0 | 0.0 | 0.00 | 0.00 | 0.00 | 99 | 1015.6 |
| 20260904064608 | 23 | 219 | 0.0 | 0.0 | 0.00 | 0.00 | 0.00 | 99 | 1015.7 |
| 20260904064107 | 23 | 219 | 0.0 | 0.0 | 0.00 | 0.00 | 0.00 | 99 | 1015.7 |
| 20260904063603 | 23 | 219 | 0.0 | 0.0 | 0.00 | 0.00 | 0.00 | 99 | 1015.7 |
| 20260904063059 | 23 | 219 | 0.0 | 0.0 | 0.00 | 0.00 | 0.00 | 99 | 1015.7 |
| 20260904062555 | 23 | 219 | 0.0 | 0.0 | 0.00 | 0.00 | 0.00 | 99 | 1015.7 |
| 20260904062050 | 23 | 219 | 0.0 | 0.0 | 0.00 | 0.00 | 0.00 | 99 | 1015.7 |
| 20260904061546 | 23 | 219 | 0.0 | 0.0 | 0.00 | 0.00 | 0.00 | 99 | 1015.7 |
| 20260904061042 | 23 | 219 | 0.0 | 0.0 | 0.00 | 0.00 | 0.00 | 99 | 1015.8 |
| 20260904060538 | 23 | 219 | 0.0 | 0.0 | 0.00 | 0.00 | 0.00 | 99 | 1015.9 |
| 20260904060034 | 23 | 219 | 0.0 | 0.0 | 0.00 | 0.00 | 0.00 | 99 | 1015.8 |
| 20260904055529 | 23 | 219 | 0.0 | 1.6 | 0.00 | 0.00 | 0.00 | 99 | 1015.9 |
| 20260904055024 | 23 | 219 | 0.0 | 0.0 | 0.00 | 0.00 | 0.00 | 99 | 1015.7 |
| 20260904054520 | 23 | 219 | 0.0 | 0.0 | 0.00 | 0.00 | 0.00 | 99 | 1015.5 |
| 20260904054016 | 23 | 219 | 0.0 | 0.0 | 0.00 | 0.00 | 0.00 | 98 | 1015.9 |
| 20260904053515 | 23 | 219 | 0.0 | 0.0 | 0.00 | 0.00 | 0.00 | 98 | 1015.5 |
| 20260904053010 | 23 | 219 | 0.0 | 0.0 | 0.00 | 0.00 | 0.00 | 98 | 1015.8 |
| 20260904052507 | 23 | 219 | 0.0 | 0.0 | 0.00 | 0.00 | 0.00 | 99 | 1015.9 |
| 20260904052002 | 23 | 219 | 0.0 | 0.0 | 0.00 | 0.00 | 0.00 | 98 | 1015.7 |
| 20260904051459 | 23 | 219 | 0.0 | 0.0 | 0.00 | 0.00 | 0.00 | 98 | 1015.8 |
| 20260904050958 | 23 | 219 | 0.0 | 0.0 | 0.00 | 0.00 | 0.00 | 98 | 1015.8 |
| 20260904050455 | 23 | 219 | 0.0 | 1.6 | 0.00 | 0.00 | 0.00 | 98 | 1015.7 |
| 20260904045950 | 23 | 219 | 0.0 | 0.0 | 0.00 | 0.00 | 0.00 | 98 | 1016.0 |
| 20260904045450 | 23 | 219 | 0.0 | 0.0 | 0.00 | 0.00 | 0.00 | 98 | 1016.0 |
| 20260904044944 | 23 | 219 | 0.0 | 0.0 | 0.00 | 0.00 | 0.00 | 98 | 1015.9 |
| 20260904044441 | 23 | 219 | 0.0 | 0.0 | 0.00 | 0.00 | 0.00 | 98 | 1015.9 |
| 20260904043937 | 23 | 219 | 0.0 | 0.0 | 0.00 | 0.00 | 0.00 | 98 | 1016.0 |
| 20260904043433 | 23 | 219 | 0.0 | 0.0 | 0.00 | 0.00 | 0.00 | 98 | 1016.1 |
| 20260904042928 | 23 | 219 | 0.0 | 0.0 | 0.00 | 0.00 | 0.00 | 98 | 1016.1 |
| 20260904042424 | 23 | 219 | 0.0 | 0.0 | 0.00 | 0.00 | 0.00 | 98 | 1016.3 |
| 20260904041919 | 23 | 219 | 0.0 | 0.0 | 0.00 | 0.00 | 0.00 | 98 | 1016.0 |
| 20260904041416 | 24 | 219 | 0.0 | 0.0 | 0.00 | 0.00 | 0.00 | 98 | 1016.2 |
| 20260904040912 | 23 | 219 | 0.0 | 0.0 | 0.00 | 0.00 | 0.00 | 98 | 1016.1 |
| 20260904040406 | 24 | 219 | 0.0 | 0.0 | 0.00 | 0.00 | 0.00 | 98 | 1016.2 |
| 20260904035902 | 24 | 219 | 0.0 | 0.0 | 0.00 | 0.00 | 0.00 | 98 | 1016.1 |
| 20260904035358 | 24 | 219 | 0.0 | 0.0 | 0.00 | 0.00 | 0.00 | 98 | 1016.2 |
| 20260904034857 | 24 | 219 | 0.0 | 0.0 | 0.00 | 0.00 | 0.00 | 97 | 1016.1 |
| 20260904034352 | 24 | 219 | 0.0 | 0.0 | 0.00 | 0.00 | 0.00 | 97 | 1016.3 |
| 20260904033842 | 24 | 219 | 0.0 | 0.0 | 0.00 | 0.00 | 0.00 | 97 | 1016.0 |
| 20260904033339 | 24 | 219 | 0.0 | 0.0 | 0.00 | 0.00 | 0.00 | 97 | 1015.9 |
| 20260904032835 | 24 | 219 | 0.0 | 0.0 | 0.00 | 0.00 | 0.00 | 97 | 1016.1 |
| 20260904032334 | 24 | 219 | 0.0 | 0.0 | 0.00 | 0.00 | 0.00 | 97 | 1016.0 |
| 20260904031828 | 24 | 219 | 1.6 | 1.6 | 0.00 | 0.00 | 0.00 | 97 | 1016.0 |
| 20260904031324 | 25 | 219 | 0.0 | 0.0 | 0.00 | 0.00 | 0.00 | 97 | 1016.1 |
| 20260904030820 | 25 | 219 | 0.0 | 0.0 | 0.00 | 0.00 | 0.00 | 97 | 1016.2 |
| 20260904030315 | 25 | 219 | 0.0 | 1.6 | 0.00 | 0.00 | 0.00 | 97 | 1016.3 |
| 20260904025811 | 25 | 219 | 0.0 | 1.6 | 0.00 | 0.00 | 0.00 | 97 | 1016.1 |
| 20260904025306 | 25 | 219 | 0.0 | 0.0 | 0.00 | 0.00 | 0.00 | 97 | 1016.4 |
| 20260904024756 | 25 | 219 | 0.0 | 0.0 | 0.00 | 0.00 | 0.00 | 97 | 1016.2 |
| 20260904024251 | 25 | 219 | 0.0 | 0.0 | 0.00 | 0.00 | 0.00 | 97 | 1016.4 |
| 20260904023747 | 25 | 219 | 0.0 | 0.0 | 0.00 | 0.00 | 0.00 | 97 | 1016.1 |
| 20260904023243 | 25 | 219 | 0.0 | 1.6 | 0.00 | 0.00 | 0.00 | 97 | 1016.2 |
| 20260904022742 | 25 | 219 | 0.0 | 0.0 | 0.00 | 0.00 | 0.00 | 97 | 1016.1 |
| 20260904022239 | 25 | 219 | 0.0 | 1.6 | 0.00 | 0.00 | 0.00 | 97 | 1016.0 |
| 20260904021730 | 25 | 219 | 0.0 | 0.0 | 0.00 | 0.00 | 0.00 | 96 | 1015.9 |
| 20260904021230 | 25 | 219 | 0.0 | 0.0 | 0.00 | 0.00 | 0.00 | 96 | 1015.9 |
| 20260904020726 | 25 | 219 | 0.0 | 0.0 | 0.00 | 0.00 | 0.00 | 96 | 1016.0 |
| 20260904020225 | 25 | 219 | 1.6 | 1.6 | 0.00 | 0.00 | 0.00 | 96 | 1015.8 |
| 20260904015724 | 25 | 219 | 0.0 | 0.0 | 0.00 | 0.00 | 0.00 | 96 | 1016.0 |
| 20260904015219 | 25 | 219 | 0.0 | 0.0 | 0.00 | 0.00 | 0.00 | 96 | 1016.0 |
| 20260904014717 | 25 | 219 | 0.0 | 0.0 | 0.00 | 0.00 | 0.00 | 96 | 1015.9 |
| 20260904014213 | 25 | 219 | 0.0 | 0.0 | 0.00 | 0.00 | 0.00 | 96 | 1015.8 |
| 20260904013709 | 26 | 219 | 0.0 | 0.0 | 0.00 | 0.00 | 0.00 | 96 | 1015.8 |
| 20260904013205 | 26 | 219 | 0.0 | 0.0 | 0.00 | 0.00 | 0.00 | 95 | 1015.7 |
| 20260904012701 | 26 | 219 | 0.0 | 0.0 | 0.00 | 0.00 | 0.00 | 95 | 1015.5 |
| 20260904012159 | 26 | 219 | 0.0 | 0.0 | 0.00 | 0.00 | 0.00 | 95 | 1015.5 |
| 20260904011659 | 26 | 219 | 0.0 | 0.0 | 0.00 | 0.00 | 0.00 | 94 | 1015.6 |
| 20260904011155 | 26 | 219 | 0.0 | 0.0 | 0.00 | 0.00 | 0.00 | 94 | 1015.7 |
| 20260904010655 | 26 | 219 | 0.0 | 0.0 | 0.00 | 0.00 | 0.00 | 94 | 1015.5 |
| 20260904010152 | 26 | 219 | 0.0 | 0.0 | 0.00 | 0.00 | 0.00 | 93 | 1015.6 |
| 20260904005647 | 26 | 219 | 0.0 | 0.0 | 0.00 | 0.00 | 0.00 | 93 | 1015.1 |
| 20260904005143 | 26 | 219 | 0.0 | 0.0 | 0.00 | 0.00 | 0.00 | 93 | 1015.3 |
| 20260904004638 | 26 | 219 | 0.0 | 0.0 | 0.00 | 0.00 | 0.00 | 93 | 1015.6 |
| 20260904004138 | 27 | 219 | 1.6 | 1.6 | 0.00 | 0.00 | 0.00 | 92 | 1015.4 |
| 20260904003633 | 27 | 219 | 0.0 | 0.0 | 0.00 | 0.00 | 0.00 | 92 | 1015.5 |
| 20260904003129 | 27 | 219 | 0.0 | 0.0 | 0.00 | 0.00 | 0.00 | 91 | 1015.4 |
| 20260904002626 | 27 | 219 | 1.6 | 1.6 | 0.00 | 0.00 | 0.00 | 91 | 1015.4 |
| 20260904002126 | 27 | 219 | 0.0 | 1.6 | 0.00 | 0.00 | 0.00 | 90 | 1015.3 |
| 20260904001621 | 27 | 219 | 0.0 | 0.0 | 0.00 | 0.00 | 0.00 | 90 | 1015.3 |
| 20260904001120 | 28 | 219 | 0.0 | 1.6 | 0.00 | 0.00 | 0.00 | 90 | 1015.5 |
| 20260904000615 | 28 | 219 | 0.0 | 0.0 | 0.00 | 0.00 | 0.00 | 88 | 1015.2 |
| 20260904000111 | 28 | 219 | 0.0 | 0.0 | 0.00 | 0.00 | 0.00 | 88 | 1015.3 |
| 20260903235610 | 28 | 219 | 1.6 | 1.6 | 0.00 | 0.00 | 0.00 | 87 | 1015.4 |
| 20260903235107 | 29 | 219 | 1.6 | 1.6 | 0.00 | 0.00 | 0.00 | 85 | 1015.2 |
| 20260903234601 | 30 | 219 | 0.0 | 0.0 | 0.00 | 0.00 | 0.00 | 83 | 1015.3 |
| 20260903234057 | 30 | 219 | 0.0 | 0.0 | 0.00 | 0.00 | 0.00 | 81 | 1015.0 |
| 20260903233553 | 30 | 219 | 0.0 | 0.0 | 0.00 | 0.00 | 0.00 | 82 | 1015.3 |
| 20260903233048 | 30 | 219 | 1.6 | 1.6 | 0.00 | 0.00 | 0.00 | 82 | 1015.4 |
| 20260903232543 | 30 | 219 | 1.6 | 1.6 | 0.00 | 0.00 | 0.00 | 79 | 1015.0 |
| 20260903232038 | 31 | 219 | 1.6 | 1.6 | 0.00 | 0.00 | 0.00 | 77 | 1014.9 |
| 20260903231532 | 31 | 219 | 0.0 | 1.6 | 0.00 | 0.00 | 0.00 | 77 | 1014.9 |
| 20260903231027 | 31 | 219 | 1.6 | 1.6 | 0.00 | 0.00 | 0.00 | 77 | 1015.1 |
| 20260903230524 | 32 | 219 | 1.6 | 1.6 | 0.00 | 0.00 | 0.00 | 74 | 1014.9 |
| 20260903230022 | 32 | 219 | 0.0 | 1.6 | 0.00 | 0.00 | 0.00 | 75 | 1014.8 |
| 20260903225520 | 32 | 219 | 1.6 | 1.6 | 0.00 | 0.00 | 0.00 | 72 | 1014.7 |
| 20260903225016 | 32 | 219 | 0.0 | 1.6 | 0.00 | 0.00 | 0.00 | 71 | 1014.7 |
| 20260903224512 | 33 | 220 | 1.6 | 1.6 | 0.00 | 0.00 | 0.00 | 70 | 1014.7 |
| 20260903224008 | 34 | 220 | 1.6 | 1.6 | 0.00 | 0.00 | 0.00 | 67 | 1014.7 |
| 20260903223507 | 35 | 217 | 0.0 | 1.6 | 0.00 | 0.00 | 0.00 | 64 | 1014.7 |
| 20260903223006 | 35 | 220 | 0.0 | 1.6 | 0.00 | 0.00 | 0.00 | 65 | 1014.7 |
| 20260903222501 | 35 | 220 | 0.0 | 1.6 | 0.00 | 0.00 | 0.00 | 62 | 1014.7 |
| 20260903222000 | 35 | 209 | 0.0 | 1.6 | 0.00 | 0.00 | 0.00 | 60 | 1014.9 |
| 20260903221455 | 35 | 219 | 0.0 | 1.6 | 0.00 | 0.00 | 0.00 | 64 | 1015.0 |
| 20260903220953 | 36 | 219 | 0.0 | 1.6 | 0.00 | 0.00 | 0.00 | 63 | 1014.9 |
| 20260903220447 | 36 | 219 | 1.6 | 1.6 | 0.00 | 0.00 | 0.00 | 60 | 1015.0 |
| 20260903215944 | 37 | 219 | 0.0 | 0.0 | 0.00 | 0.00 | 0.00 | 55 | 1014.8 |
| 20260903215442 | 37 | 219 | 0.0 | 0.0 | 0.00 | 0.00 | 0.00 | 54 | 1014.9 |
| 20260903214940 | 37 | 218 | 0.0 | 0.0 | 0.00 | 0.00 | 0.00 | 55 | 1014.9 |
| 20260903214435 | 37 | 203 | 0.0 | 1.6 | 0.00 | 0.00 | 0.00 | 47 | 1015.0 |
| 20260903213935 | 37 | 215 | 0.0 | 0.0 | 0.00 | 0.00 | 0.00 | 51 | 1015.0 |
| 20260903213431 | 37 | 216 | 0.0 | 0.0 | 0.00 | 0.00 | 0.00 | 50 | 1014.9 |
| 20260903212927 | 37 | 225 | 0.0 | 1.6 | 0.00 | 0.00 | 0.00 | 49 | 1015.0 |
| 20260903212422 | 37 | 209 | 0.0 | 1.6 | 0.00 | 0.00 | 0.00 | 48 | 1015.0 |
| 20260903211922 | 37 | 219 | 0.0 | 0.0 | 0.00 | 0.00 | 0.00 | 48 | 1015.1 |
| 20260903211418 | 37 | 224 | 0.0 | 1.6 | 0.00 | 0.00 | 0.00 | 49 | 1015.0 |
| 20260903210914 | 37 | 225 | 0.0 | 0.0 | 0.00 | 0.00 | 0.00 | 50 | 1015.3 |
| 20260903210413 | 37 | 237 | 1.6 | 3.2 | 0.00 | 0.00 | 0.00 | 46 | 1015.2 |
| 20260903205909 | 37 | 220 | 1.6 | 1.6 | 0.00 | 0.00 | 0.00 | 53 | 1015.3 |
| 20260903205408 | 37 | 216 | 0.0 | 1.6 | 0.00 | 0.00 | 0.00 | 49 | 1015.5 |
| 20260903204903 | 37 | 236 | 0.0 | 3.2 | 0.00 | 0.00 | 0.00 | 46 | 1015.4 |
| 20260903204359 | 37 | 204 | 1.6 | 1.6 | 0.00 | 0.00 | 0.00 | 51 | 1015.3 |
| 20260903203854 | 37 | 233 | 0.0 | 1.6 | 0.00 | 0.00 | 0.00 | 48 | 1015.6 |
| 20260903203350 | 37 | 215 | 1.6 | 1.6 | 0.00 | 0.00 | 0.00 | 52 | 1015.5 |
| 20260903202849 | 36 | 222 | 0.0 | 1.6 | 0.00 | 0.00 | 0.00 | 49 | 1015.7 |
| 20260903202346 | 36 | 249 | 0.0 | 1.6 | 0.00 | 0.00 | 0.00 | 50 | 1015.8 |
| 20260903201845 | 37 | 218 | 0.0 | 1.6 | 0.00 | 0.00 | 0.00 | 49 | 1015.7 |
| 20260903201341 | 37 | 214 | 0.0 | 1.6 | 0.00 | 0.00 | 0.00 | 48 | 1016.0 |
| 20260903200839 | 37 | 218 | 0.0 | 1.6 | 0.00 | 0.00 | 0.00 | 45 | 1015.9 |
| 20260903200335 | 37 | 227 | 1.6 | 3.2 | 0.00 | 0.00 | 0.00 | 45 | 1016.0 |
| 20260903195830 | 38 | 217 | 0.0 | 1.6 | 0.00 | 0.00 | 0.00 | 44 | 1015.9 |
| 20260903195326 | 37 | 224 | 0.0 | 1.6 | 0.00 | 0.00 | 0.00 | 47 | 1016.0 |
| 20260903194821 | 37 | 211 | 0.0 | 3.2 | 0.00 | 0.00 | 0.00 | 46 | 1016.1 |
| 20260903194316 | 37 | 221 | 0.0 | 1.6 | 0.00 | 0.00 | 0.00 | 45 | 1015.8 |
| 20260903193812 | 37 | 235 | 0.0 | 1.6 | 0.00 | 0.00 | 0.00 | 43 | 1016.4 |
| 20260903193308 | 37 | 202 | 3.2 | 3.2 | 0.00 | 0.00 | 0.00 | 43 | 1016.2 |
| 20260903192803 | 37 | 217 | 1.6 | 1.6 | 0.00 | 0.00 | 0.00 | 51 | 1016.2 |
| 20260903192259 | 36 | 214 | 0.0 | 1.6 | 0.00 | 0.00 | 0.00 | 53 | 1016.3 |
| 20260903191755 | 36 | 214 | 1.6 | 3.2 | 0.00 | 0.00 | 0.00 | 45 | 1016.4 |
| 20260903191250 | 37 | 236 | 3.2 | 4.8 | 0.00 | 0.00 | 0.00 | 47 | 1016.4 |
| 20260903190745 | 37 | 220 | 1.6 | 3.2 | 0.00 | 0.00 | 0.00 | 49 | 1016.2 |
| 20260903190244 | 37 | 213 | 1.6 | 1.6 | 0.00 | 0.00 | 0.00 | 45 | 1016.6 |
| 20260903185739 | 36 | 221 | 0.0 | 1.6 | 0.00 | 0.00 | 0.00 | 45 | 1016.4 |
| 20260903185239 | 36 | 219 | 1.6 | 1.6 | 0.00 | 0.00 | 0.00 | 48 | 1016.4 |
| 20260903184736 | 36 | 236 | 0.0 | 1.6 | 0.00 | 0.00 | 0.00 | 51 | 1016.7 |
| 20260903184231 | 36 | 232 | 6.4 | 8.0 | 0.00 | 0.00 | 0.00 | 48 | 1016.7 |
| 20260903183727 | 35 | 221 | 0.0 | 3.2 | 0.00 | 0.00 | 0.00 | 52 | 1016.6 |
| 20260903183221 | 36 | 326 | 3.2 | 4.8 | 0.00 | 0.00 | 0.00 | 50 | 1016.8 |
| 20260903182720 | 36 | 247 | 0.0 | 1.6 | 0.00 | 0.00 | 0.00 | 52 | 1016.8 |
| 20260903182215 | 36 | 215 | 1.6 | 1.6 | 0.00 | 0.00 | 0.00 | 48 | 1016.9 |
| 20260903181713 | 36 | 215 | 0.0 | 1.6 | 0.00 | 0.00 | 0.00 | 48 | 1016.9 |
| 20260903181203 | 36 | 217 | 1.6 | 3.2 | 0.00 | 0.00 | 0.00 | 48 | 1017.0 |
| 20260903180658 | 36 | 282 | 1.6 | 8.0 | 0.00 | 0.00 | 0.00 | 48 | 1017.0 |
| 20260903180158 | 36 | 232 | 0.0 | 1.6 | 0.00 | 0.00 | 0.00 | 51 | 1017.1 |
| 20260903175657 | 35 | 242 | 3.2 | 3.2 | 0.00 | 0.00 | 0.00 | 48 | 1017.2 |
| 20260903175151 | 35 | 233 | 1.6 | 3.2 | 0.00 | 0.00 | 0.00 | 47 | 1017.2 |
| 20260903174645 | 35 | 213 | 3.2 | 4.8 | 0.00 | 0.00 | 0.00 | 48 | 1017.3 |
| 20260903174140 | 35 | 229 | 0.0 | 0.0 | 0.00 | 0.00 | 0.00 | 52 | 1017.3 |
| 20260903173635 | 35 | 204 | 0.0 | 1.6 | 0.00 | 0.00 | 0.00 | 51 | 1017.3 |
| 20260903173132 | 35 | 247 | 0.0 | 1.6 | 0.00 | 0.00 | 0.00 | 49 | 1017.2 |
| 20260903172631 | 35 | 224 | 1.6 | 1.6 | 0.00 | 0.00 | 0.00 | 49 | 1017.3 |
| 20260903172126 | 35 | 264 | 1.6 | 1.6 | 0.00 | 0.00 | 0.00 | 45 | 1017.5 |
| 20260903171620 | 35 | 249 | 1.6 | 3.2 | 0.00 | 0.00 | 0.00 | 45 | 1017.4 |
| 20260903171117 | 35 | 244 | 3.2 | 4.8 | 0.00 | 0.00 | 0.00 | 48 | 1017.5 |
| 20260903170615 | 35 | 228 | 1.6 | 3.2 | 0.00 | 0.00 | 0.00 | 53 | 1017.7 |
| 20260903170111 | 35 | 227 | 1.6 | 4.8 | 0.00 | 0.00 | 0.00 | 51 | 1017.5 |
| 20260903165609 | 34 | 238 | 0.0 | 4.8 | 0.00 | 0.00 | 0.00 | 51 | 1017.6 |
| 20260903165104 | 34 | 255 | 1.6 | 3.2 | 0.00 | 0.00 | 0.00 | 54 | 1017.6 |
| 20260903164558 | 34 | 232 | 3.2 | 3.2 | 0.00 | 0.00 | 0.00 | 52 | 1017.7 |
| 20260903164055 | 33 | 214 | 1.6 | 1.6 | 0.00 | 0.00 | 0.00 | 55 | 1017.8 |
| 20260903163555 | 34 | 213 | 3.2 | 4.8 | 0.00 | 0.00 | 0.00 | 55 | 1017.9 |
| 20260903163051 | 34 | 225 | 0.0 | 1.6 | 0.00 | 0.00 | 0.00 | 60 | 1018.1 |
| 20260903162547 | 33 | 221 | 0.0 | 1.6 | 0.00 | 0.00 | 0.00 | 59 | 1018.1 |
| 20260903162042 | 33 | 227 | 1.6 | 1.6 | 0.00 | 0.00 | 0.00 | 62 | 1017.9 |
| 20260903161538 | 33 | 237 | 0.0 | 3.2 | 0.00 | 0.00 | 0.00 | 61 | 1017.8 |
| 20260903161034 | 33 | 227 | 0.0 | 0.0 | 0.00 | 0.00 | 0.00 | 66 | 1018.0 |
| 20260903160532 | 33 | 232 | 0.0 | 0.0 | 0.00 | 0.00 | 0.00 | 64 | 1018.0 |
| 20260903160027 | 33 | 208 | 0.0 | 1.6 | 0.00 | 0.00 | 0.00 | 61 | 1018.0 |
| 20260903155526 | 33 | 204 | 0.0 | 1.6 | 0.00 | 0.00 | 0.00 | 64 | 1018.0 |
| 20260903155022 | 32 | 247 | 1.6 | 3.2 | 0.00 | 0.00 | 0.00 | 62 | 1017.9 |
| 20260903154518 | 32 | 210 | 0.0 | 4.8 | 0.00 | 0.00 | 0.00 | 65 | 1018.1 |
| 20260903154015 | 32 | 233 | 0.0 | 1.6 | 0.00 | 0.00 | 0.00 | 63 | 1018.0 |
| 20260903153509 | 32 | 218 | 0.0 | 1.6 | 0.00 | 0.00 | 0.00 | 72 | 1018.0 |
| 20260903153005 | 31 | 217 | 0.0 | 1.6 | 0.00 | 0.00 | 0.00 | 74 | 1018.0 |
| 20260903152501 | 31 | 217 | 1.6 | 3.2 | 0.00 | 0.00 | 0.00 | 70 | 1018.0 |
| 20260903151957 | 31 | 230 | 0.0 | 1.6 | 0.00 | 0.00 | 0.00 | 67 | 1018.0 |